Location: Boullarre
(49.1305°N, 3.0047°E)
Time: 13:59:07
(UTC+00:00)

ARIANE 6 FM1 Upper Stage - Visible Passes

Search period start: 19 September 2024 00:00
Search period end: 29 September 2024 00:00
Orbit: 566 x 594 km, 62.0° (Epoch: 19 September)

Date Brightness Start Highest point End Pass type
(mag) Time Alt. Az. Time Alt. Az. Time Alt. Az.
19 Sep 5.8 00:50:55 13° NNE 00:50:55 13° NNE 00:51:54 10° NE visible
19 Sep 4.6 02:27:18 18° NNW 02:29:48 30° NNE 02:33:42 10° E visible
19 Sep 2.8 04:05:08 10° NW 04:09:26 60° SW 04:13:45 10° SSE visible
19 Sep 4.1 19:49:28 10° SSW 19:51:27 24° S 19:51:27 24° S visible
20 Sep 5.9 00:56:51 11° NE 00:56:51 11° NE 00:57:10 10° NE visible
20 Sep 4.0 02:33:17 30° N 02:34:42 40° NE 02:38:49 10° ESE visible
20 Sep 3.2 04:09:59 10° WNW 04:14:05 40° SW 04:18:09 10° SSE visible
20 Sep 2.6 19:53:55 10° SSW 19:58:09 64° SE 19:58:12 64° SE visible
20 Sep 5.5 21:34:02 10° W 21:34:37 13° W 21:34:37 13° W visible
21 Sep 3.5 02:39:50 53° ENE 02:39:50 53° ENE 02:43:49 10° ESE visible
21 Sep 3.7 04:16:18 17° WNW 04:18:39 26° WSW 04:22:18 10° S visible
21 Sep 4.4 18:21:37 10° SSE 18:24:05 15° ESE 18:26:33 10° E visible
21 Sep 2.7 19:58:32 10° SW 20:02:50 87° NW 20:04:20 40° NE visible
21 Sep 5.4 21:39:14 10° W 21:40:43 17° WNW 21:40:43 17° WNW visible
22 Sep 4.5 02:46:54 24° SE 02:46:54 24° SE 02:48:39 10° SE visible
22 Sep 4.2 04:23:22 18° WSW 04:23:22 18° WSW 04:26:04 10° SSW visible
22 Sep 3.9 18:25:11 10° S 18:28:33 23° ESE 18:31:57 10° ENE visible
22 Sep 3.2 20:03:19 10° WSW 20:07:34 60° NW 20:09:55 25° NNE visible
22 Sep 5.5 21:44:30 10° WNW 21:46:16 17° NW 21:46:16 17° NW visible
23 Sep 3.4 18:29:12 10° S 18:33:03 34° SE 18:36:59 10° ENE visible
23 Sep 3.9 20:08:14 10° WSW 20:12:21 43° NW 20:15:05 19° NNE visible
23 Sep 5.6 21:49:47 10° WNW 21:51:25 16° NW 21:51:25 16° NW visible
24 Sep 2.9 18:33:29 10° SSW 18:37:38 52° SE 18:41:51 10° NE visible
24 Sep 4.4 20:13:16 10° W 20:17:11 33° NNW 20:19:59 16° NNE visible
24 Sep 5.7 21:55:01 10° NW 21:56:18 14° NNW 21:56:18 14° NNW visible
25 Sep 2.7 18:37:58 10° SW 18:42:15 79° SE 18:46:35 10° NE visible
25 Sep 4.8 20:18:25 10° W 20:22:03 26° NNW 20:24:41 15° NNE visible
25 Sep 5.9 22:00:11 10° NW 22:01:00 12° NNW 22:01:00 12° NNW visible
26 Sep 3.0 18:42:38 10° SW 18:46:55 72° NW 18:51:16 10° NE visible
26 Sep 5.1 20:23:36 10° WNW 20:26:58 21° NNW 20:29:16 15° NNE visible
26 Sep 6.0 22:05:13 10° NW 22:05:34 11° NNW 22:05:34 11° NNW visible
27 Sep 3.6 18:47:27 10° WSW 18:51:38 50° NW 18:55:53 10° NE visible
27 Sep 5.2 20:28:50 10° WNW 20:31:54 18° NNW 20:33:46 15° NNE visible
28 Sep 4.2 18:52:24 10° WSW 18:56:24 37° NW 19:00:27 10° NE visible
28 Sep 5.2 20:34:03 10° NW 20:36:51 16° N 20:38:13 15° N visible
